Torna al catalogo

ARIANE 1 DEB

AttivoSSO
NORAD 17121·DEBRIS·🇫🇷 France

Lanciato Feb 22, 1986 da Guiana Space Centre

Loading…

Prossimi Passaggi (prossime 24 ore)

TLE

AggiornatoSource: Space-Track

Epoca: Sep 14, 2026, 10:41 UTC

1 17121U 86019R   26257.44527978  .00000582  00000-0  21126-3 0  9994
2 17121  98.3032 245.0549 0054002 158.4235 353.8027 14.35940033 70442

Traccia ARIANE 1 DEB in tempo reale con AllMySat

Download on the App Store